Simultaneous Nadir Overpasses (SNOs) Predictions

Prediction of SNOs between METOP-B and TERRA Satellite Orbit:

Table of predicted SNOs for the next 14.0 days since TLE Epoch: 3/9/2013
Index Date (METOP-B) Time (METOP-B) Lat,Lon (METOP-B) SZA (METOP-B ) Date (TERRA) Time (TERRA) Lat,Lon (TERRA) SZA (TERRA ) Distance(km) Time Diff (sec)
1 03/10/2013 12:45:10 81.29, 35.86 87.67 03/10/2013 12:45:36 81.29, 35.71 87.67 2.52 26
2 03/10/2013 13:35:50 -81.29,-156.59 92.32 03/10/2013 13:35:03 -81.29,-156.73 92.36 2.34 47
3 03/13/2013 08:19:34 81.28, 101.87 86.55 03/13/2013 08:19:54 81.28, 101.90 86.55 0.83 20
4 03/13/2013 09:10:13 -81.29, -90.13 93.39 03/13/2013 09:09:20 -81.29, -90.14 93.42 0.32 53
5 03/16/2013 03:53:56 81.28, 168.22 85.45 03/16/2013 03:54:10 81.28, 168.38 85.48 2.64 14
6 03/1
